Retour au catalogue

STARLINK-32923

ActifCommunicationsVLEO
NORAD 63097·PAYLOAD·🇺🇸 United States

Lancé Feb 23, 2025 depuis Vandenberg Space Force Base

Loading…

Prochains Passages (prochaines 24 heures)

TLE

FraisSource: CelesTrak SupGP

Époque: Sep 14, 2026, 21:11 UTC

1 63097C 25037W   26257.88312500  .00055535  00000+0  19320-2 0  2577
2 63097  70.0007 235.6956 0003061 266.4144 139.8006 15.29549222    13

Suivez STARLINK-32923 en temps réel avec AllMySat

Download on the App Store